Tracking 17636 objects as of 30-April-2016
HD Live streaming from Space Station
objects crossing your sky now

TANSUO 2

Track TANSUO 2 now!
10-day predictions
TANSUO 2 is classified as:


NORAD ID: 28479
Int'l Code: 2004-046A
Perigee: 691.6 km
Apogee: 705.7 km
Inclination: 98.2 °
Period: 98.6 minutes
Semi major axis: 7069 km
RCS: 1.44 m2 (large)
Launch date: November 18, 2004
Source: People's Republic of China (PRC)
Launch site: Xichang Space Center, China (XSC)
Your satellite tracking list
Your tracking list is empty





NASA's NSSDC Master Catalog

Two Line Element Set (TLE):
1 28479U 04046A   16121.50906694  .00000149  00000-0  40411-4 0  9992
2 28479  98.2303 135.6882 0010001 344.5296  15.5598 14.60518333609298
Source of the keplerian elements: AFSPC

N2YO: 291